Location: St. Louis
(38.6270°N, 90.1994°W)
Time: 03:22:05
(UTC-05:00)

OPS 7613 P/L 1 - Pass Details

Date: 06 July 2022
Orbit: 887 x 911 km, 70.0° (Epoch: 10 August)

Event Time Altitude Azimuth Distance (km) Brightness Sun altitude
Rises 04:10:53 0° 341° (NNW) 3,507 11.8 -14.9°
Reaches altitude 10° 04:13:30 10° 348° (NNW) 2,561 11.2 -14.6°
Maximum altitude 04:19:09 45° 61° (ENE) 1,186 9.5 -13.8°
Drops below altitude 10° 04:24:45 10° 133° (SE) 2,542 10.7 -13.0°
Sets 04:27:20 0° 140° (SE) 3,478 11.4 -12.6°
